Regional Weather Roundup
Issued by NWS Cleveland, OH

Home | Current Version | Previous Version | Graphics & Text | Print | Product List | Glossary On
Versions: 1 2 3 4 5 6 7 8 9 10 11 12 13 14 15 16 17 18 19 20 21 22 23 24 25 26 27 28 29 30 31 32 33 34 35 36 37 38 39 40 41 42 43 44 45 46 47 48 49 50
000
ASUS41 KCLE 310000
RWRCLE
OHIO REGIONAL WEATHER ROUNDUP
NATIONAL WEATHER SERVICE WILMINGTON, OH
700 PM EST FRI JAN 30 2015

NOTE: "FAIR" INDICATES FEW OR NO CLOUDS BELOW 12,000 FEET WITH NO
SIGNIFICANT WEATHER AND/OR OBSTRUCTIONS TO VISIBILITY.

OHZ001>008-015>018-024>027-034-035-043-044-310100-
   NORTHWEST OHIO

CITY           SKY/WX    TMP DP  RH WIND       PRES   REMARKS
DEFIANCE       CLEAR     22  12  65 CALM      30.44S
FINDLAY        CLEAR     19   8  62 CALM      30.42F
TOLEDO EXPRESS CLEAR     18   7  62 CALM      30.43F
TOLEDO EXEC    CLEAR     21   7  54 CALM      30.44F
LIMA           CLEAR     21  10  62 CALM      30.42F
$$

OHZ009>014-019>023-028>033-038-089-310100-
   NORTHEAST OHIO

CITY           SKY/WX    TMP DP  RH WIND       PRES   REMARKS
CLE-HOPKINS    CLEAR     14   4  64 N5        30.46S WCI   6
CLE-LAKEFRONT  CLEAR     15   6  67 NW8       30.44S WCI   4
CUY CO. ARPT   PTCLDY    14   9  79 NW12      30.43R WCI   0
LORAIN-ELYRIA  CLEAR     12   3  67 CALM      30.44S
ASHTABULA      CLOUDY    14   7  73 NW10      30.39R WCI   1
AKRON-CANTON   MOCLDY    14   3  61 NW10      30.39R WCI   1
WOOSTER        NOT AVBL
MANSFIELD      CLEAR     12   3  67 CALM      30.40R
YOUNGSTOWN     LGT SNOW  13   7  77 NW9       30.36S WCI   1
$$

OHZ042-051>053-060>062-070>072-077>081-310100-
  SOUTHWEST OHIO

CITY           SKY/WX    TMP DP  RH WIND       PRES   REMARKS
CINC-COVINGTON PTCLDY    26  15  63 N6        30.44S WCI  19
CINC-LUNKEN    PTCLDY    26  14  60 NE6       30.48S WCI  19
HAMILTON       PTCLDY    25  15  66 N5        30.47S WCI  19
DAYTON         NOT AVBL
WRIGHT-PAT AFB NOT AVBL
DAYTON GENERAL FAIR      23  13  65 N5        30.43S WCI  17
WILMINGTON     CLEAR     21  12  68 N3        30.43S
$$

OHZ036-037-039>041-045>050-054>059-063>069-073>076-082>088-310100-
  CENTRAL AND SOUTHEAST OHIO

CITY           SKY/WX    TMP DP  RH WIND       PRES   REMARKS
COLUMBUS       PTCLDY    19   8  62 N5        30.45R WCI  12
OSU AIRPORT    FAIR      19   8  62 CALM      30.43F
BOLTON FIELD   MOCLDY    19   9  63 NW3       30.45R
RICKENBACK AFB NOT AVBL
NEWARK         CLEAR     16   6  65 CALM      30.44R
MARION         CLEAR     13   6  74 CALM      30.42F
LANCASTER      CLEAR     20   9  62 NW6       30.45R WCI  12
ZANESVILLE     CLEAR     16   5  62 NW3       30.44R
NEW PHILLY     CLOUDY    16   6  65 NW3       30.44R
$$


USA.gov is the U.S. government's official web portal to all federal, state and local government web resources and services.